QPF
0.00 0.00 0.00 0.00 0.00 0.00 0.00 0.00 0.00 0.00 0.00 0.00 0.00 0.00 0.00 0.00 0.00 0.00 0.00 0.00 0.00 0.00 0.00 0.00 0.00 0.00 0.00 0.00 0.00 0.00 0.00 0.00 0.00 0.00 0.00 0.00 0.00 0.00 0.00 0.00 0.00 0.00 0.00
0.00 0.00 0.00 0.00 0.00 0.00 0.00 0.00 0.00 0.00 0.00 0.00 0.00 0.00 0.00 0.00 0.00 0.00 0.00 0.00 0.00 0.00 0.00 0.00 0.00 0.00 0.00 0.00 0.00 0.00 0.00 0.00 0.00 0.00 0.00 0.00 0.00 0.00 0.00 0.00 0.00 0.00 0.00
0.00 0.00 0.00 0.00 0.00 0.00 0.00 0.00 0.00 0.00 0.00 0.00 0.00 0.00 0.00 0.00 0.00 0.00 0.00 0.00 0.00 0.00 0.00 0.00 0.00 0.00 0.00 0.00 0.00 0.00 0.00 0.00 0.00 0.00 0.00 0.00 0.00 0.00 0.00 0.00 0.00 0.00 0.00
0.00 0.00 0.00 0.00 0.00 0.00 0.00 0.00 0.00 0.00 0.00 0.00 0.00 0.00 0.00 0.00 0.00 0.00 0.00 0.00 0.00 0.00 0.00 0.00 0.00 0.00 0.00 0.00 0.00 0.00 0.00 0.00 0.00 0.00 0.00 0.00 0.00 0.00 0.00 0.00 0.00 0.00 0.00
0.00 0.00 0.00 0.00 0.00 0.00 0.00 0.00 0.00 0.00 0.00 0.00 0.00 0.00 0.00 0.00 0.00 0.00 0.00 0.00 0.00 0.00 0.00 0.00 0.00 0.00 0.00 0.00 0.00 0.00 0.00 0.00 0.00 0.00 0.00 0.00 0.00 0.00 0.00 0.00 0.00 0.00 0.00
0.00 0.00 0.00 0.00 0.00 0.00 0.00 0.00 0.00 0.00 0.00 0.00 0.00 0.00 0.00 0.00 0.00 0.00 0.00 0.00 0.00 0.00 0.00 0.00 0.00 0.00 0.00 0.00 0.00 0.00 0.00 0.00 0.00 0.00 0.00 0.00 0.00 0.00 0.00 0.00 0.00 0.00 0.00
0.00 0.00 0.00 0.00 0.00 0.00 0.00 0.00 0.00 0.00 0.00 0.00 0.00 0.00 0.00 0.00 0.00 0.00 0.00 0.00 0.00 0.00 0.00 0.00 0.00 0.00 0.00 0.00 0.00 0.00 0.00 0.00 0.00 0.00 0.00 0.00 0.00 0.00 0.00 0.00 0.00 0.00 0.00
0.03 0.00 0.00 0.00 0.00 0.00 0.00 0.00 0.01 0.01 0.01 0.00 0.00 0.00 0.00 0.00 0.00 0.00 0.00 0.00 0.00 0.00 0.00 0.00 0.00 0.00 0.00 0.00 0.00 0.00 0.00 0.00 0.00 0.00 0.00 0.00 0.00 0.00 0.00 0.00 0.00 0.00 0.00
0.02 0.02 0.03 0.00 0.00 0.01 0.01 0.01 0.04 0.09 0.05 0.04 0.01 0.00 0.00 0.00 0.00 0.00 0.00 0.00 0.00 0.00 0.00 0.00 0.00 0.00 0.00 0.00 0.00 0.00 0.00 0.00 0.00 0.00 0.00 0.00 0.00 0.00 0.00 0.00 0.00 0.00 0.00
0.03 0.05 0.06 0.04 0.02 0.03 0.03 0.08 0.10 0.10 0.13 0.07 0.06 0.02 0.02 0.00 0.00 0.00 0.01 0.01 0.00 0.00 0.00 0.00 0.00 0.00 0.00 0.00 0.00 0.00 0.00 0.00 0.00 0.00 0.00 0.00 0.00 0.00 0.00 0.00 0.00 0.00 0.00
0.00 0.00 0.00 0.02 0.02 0.02 0.02 0.03 0.06 0.05 0.08 0.08 0.06 0.09 0.07 0.05 0.02 0.01 0.02 0.02 0.01 0.01 0.00 0.00 0.00 0.00 0.00 0.00 0.00 0.00 0.00 0.00 0.00 0.00 0.00 0.00 0.00 0.00 0.00 0.00 0.00 0.00 0.00
0.00 0.00 0.00 0.00 0.00 0.00 0.01 0.01 0.01 0.02 0.03 0.04 0.05 0.08 0.13 0.11 0.08 0.05 0.03 0.03 0.02 0.01 0.00 0.00 0.00 0.00 0.00 0.00 0.00 0.00 0.00 0.00 0.00 0.00 0.00 0.00 0.00 0.00 0.00 0.00 0.00 0.00 0.00
0.00 0.00 0.01 0.00 0.00 0.00 0.00 0.00 0.00 0.01 0.03 0.05 0.06 0.05 0.05 0.06 0.07 0.07 0.04 0.03 0.02 0.02 0.01 0.00 0.00 0.00 0.00 0.00 0.00 0.00 0.00 0.00 0.00 0.00 0.00 0.00 0.00 0.00 0.00 0.00 0.00 0.00 0.00
0.00 0.00 0.00 0.00 0.00 0.00 0.00 0.00 0.00 0.00 0.01 0.04 0.07 0.08 0.08 0.07 0.06 0.06 0.06 0.04 0.03 0.03 0.02 0.01 0.00 0.00 0.00 0.00 0.00 0.00 0.00 0.00 0.00 0.00 0.00 0.00 0.00 0.00 0.00 0.00 0.00 0.00 0.00
0.00 0.00 0.00 0.00 0.00 0.00 0.00 0.00 0.00 0.00 0.00 0.01 0.02 0.03 0.04 0.04 0.04 0.05 0.05 0.04 0.06 0.04 0.03 0.01 0.00 0.00 0.00 0.00 0.00 0.00 0.00 0.00 0.00 0.00 0.00 0.00 0.00 0.00 0.00 0.00 0.00 0.00 0.00
0.00 0.00 0.00 0.00 0.00 0.00 0.00 0.00 0.00 0.00 0.00 0.00 0.00 0.00 0.01 0.01 0.02 0.03 0.04 0.04 0.04 0.05 0.04 0.01 0.00 0.00 0.00 0.00 0.00 0.00 0.00 0.00 0.00 0.00 0.00 0.00 0.00 0.00 0.00 0.00 0.00 0.00 0.00
0.00 0.00 0.00 0.00 0.00 0.00 0.00 0.00 0.00 0.00 0.00 0.00 0.00 0.00 0.00 0.00 0.00 0.00 0.00 0.01 0.02 0.02 0.02 0.01 0.00 0.00 0.00 0.00 0.00 0.00 0.00 0.00 0.00 0.00 0.00 0.00 0.00 0.00 0.00 0.00 0.00 0.00 0.00
0.00 0.00 0.00 0.00 0.00 0.00 0.00 0.00 0.00 0.00 0.00 0.00 0.00 0.00 0.00 0.00 0.00 0.00 0.00 0.00 0.01 0.01 0.01 0.00 0.00 0.00 0.00 0.00 0.00 0.00 0.00 0.00 0.00 0.00 0.00 0.00 0.00 0.00 0.00 0.00 0.00 0.00 0.00
0.00 0.00 0.00 0.00 0.00 0.00 0.00 0.00 0.00 0.00 0.00 0.00 0.00 0.00 0.00 0.00 0.00 0.00 0.00 0.00 0.00 0.00 0.00 0.00 0.00 0.00 0.00 0.00 0.00 0.00 0.00 0.00 0.00 0.00 0.00 0.00 0.00 0.00 0.00 0.00 0.00 0.00 0.00
0.00 0.00 0.00 0.00 0.00 0.00 0.00 0.00 0.00 0.00 0.00 0.00 0.00 0.00 0.00 0.00 0.00 0.00 0.00 0.00 0.00 0.00 0.00 0.00 0.00 0.00 0.00 0.00 0.00 0.00 0.00 0.00 0.00 0.00 0.00 0.00 0.00 0.00 0.00 0.00 0.00 0.00 0.00
0.00 0.00 0.00 0.00 0.00 0.00 0.00 0.00 0.00 0.00 0.00 0.00 0.00 0.00 0.00 0.00 0.00 0.00 0.00 0.00 0.00 0.00 0.00 0.00 0.00 0.00 0.00 0.00 0.00 0.00 0.00 0.00 0.00 0.00 0.00 0.00 0.00 0.00 0.00 0.00 0.00 0.00 0.00
0.00 0.00 0.00 0.00 0.00 0.00 0.00 0.00 0.00 0.00 0.00 0.00 0.00 0.00 0.00 0.00 0.00 0.00 0.00 0.00 0.00 0.00 0.00 0.00 0.00 0.00 0.00 0.00 0.00 0.00 0.00 0.00 0.00 0.00 0.00 0.00 0.00 0.00 0.00 0.00 0.00 0.00 0.00
0.00 0.00 0.00 0.00 0.00 0.00 0.00 0.00 0.00 0.00 0.00 0.00 0.00 0.00 0.00 0.00 0.00 0.00 0.00 0.00 0.00 0.00 0.00 0.00 0.00 0.00 0.00 0.00 0.00 0.00 0.00 0.00 0.00 0.00 0.00 0.00 0.00 0.00 0.00 0.00 0.00 0.00 0.00
0.00 0.00 0.00 0.00 0.00 0.00 0.00 0.00 0.00 0.00 0.00 0.00 0.00 0.00 0.00 0.00 0.00 0.00 0.00 0.00 0.00 0.00 0.00 0.00 0.00 0.00 0.00 0.00 0.00 0.00 0.00 0.00 0.00 0.00 0.00 0.00 0.00 0.00 0.00 0.00 0.00 0.00 0.00
0.00 0.00 0.00 0.00 0.00 0.00 0.00 0.00 0.00 0.00 0.00 0.00 0.00 0.00 0.00 0.00 0.00 0.00 0.00 0.00 0.00 0.00 0.00 0.00 0.00 0.00 0.00 0.00 0.00 0.00 0.00 0.00 0.00 0.00 0.00 0.00 0.00 0.00 0.00 0.00 0.00 0.00 0.00
0.00 0.00 0.00 0.00 0.00 0.00 0.00 0.00 0.00 0.00 0.00 0.00 0.00 0.00 0.00 0.00 0.00 0.00 0.00 0.00 0.00 0.00 0.00 0.00 0.00 0.00 0.00 0.00 0.00 0.00 0.00 0.00 0.00 0.00 0.00 0.00 0.00 0.00 0.00 0.00 0.00 0.00 0.00
MSLP
1019.06 1019.31 1019.63 1020.00 1020.22 1020.39 1020.52 1020.81 1020.85 1020.90 1020.98 1021.11 1020.92 1020.95 1020.82 1021.22 1021.38 1021.48 1021.66 1021.65 1021.79 1022.05 1022.22 1022.43 1022.66 1022.97 1023.17 1023.30 1023.46 1023.59 1023.68 1023.76 1023.87 1024.01 1024.01 1024.05 1024.16 1024.31 1024.32 1024.30 1024.26 1024.19 1024.15
1018.51 1018.92 1019.37 1019.70 1019.91 1019.97 1020.20 1020.35 1020.53 1020.63 1020.68 1020.69 1020.75 1020.80 1020.88 1020.89 1021.17 1021.42 1021.64 1021.70 1021.79 1021.99 1022.13 1022.21 1022.37 1022.74 1023.00 1023.20 1023.41 1023.61 1023.71 1023.90 1024.00 1024.08 1024.16 1024.19 1024.22 1024.43 1024.39 1024.40 1024.40 1024.37 1024.33
1017.95 1018.33 1018.85 1019.18 1019.28 1019.47 1019.67 1019.98 1020.06 1020.28 1020.47 1020.56 1020.69 1020.80 1020.90 1020.96 1021.00 1021.32 1021.53 1021.64 1021.72 1021.91 1022.08 1022.12 1022.31 1022.49 1022.79 1022.96 1023.29 1023.46 1023.59 1023.74 1023.91 1024.06 1024.08 1024.16 1024.22 1024.33 1024.43 1024.39 1024.44 1024.39 1024.37
1017.50 1017.95 1018.30 1018.55 1018.64 1018.95 1019.14 1019.45 1019.83 1019.99 1020.28 1020.43 1020.60 1020.83 1020.88 1020.91 1020.98 1021.10 1021.24 1021.54 1021.73 1021.72 1021.93 1022.00 1022.07 1022.27 1022.62 1022.71 1022.88 1023.22 1023.40 1023.58 1023.84 1023.97 1024.17 1024.20 1024.23 1024.18 1024.29 1024.29 1024.34 1024.29 1024.16
1017.11 1017.48 1017.82 1018.09 1018.29 1018.54 1018.74 1019.06 1019.37 1019.63 1020.11 1020.27 1020.43 1020.59 1020.83 1020.95 1020.96 1020.94 1021.29 1021.29 1021.38 1021.54 1021.62 1021.75 1021.91 1022.09 1022.32 1022.52 1022.73 1022.98 1023.29 1023.40 1023.66 1023.84 1024.00 1024.23 1024.24 1024.25 1024.27 1024.29 1024.21 1024.20 1024.07
1016.47 1016.96 1017.27 1017.53 1017.82 1018.33 1018.66 1018.97 1019.19 1019.40 1019.57 1019.93 1020.24 1020.53 1020.69 1020.80 1020.82 1020.94 1021.00 1021.04 1021.13 1021.28 1021.49 1021.53 1021.74 1021.98 1022.12 1022.32 1022.52 1022.79 1023.00 1023.38 1023.57 1023.73 1023.82 1024.03 1024.17 1024.19 1024.19 1024.17 1024.15 1024.09 1024.00
1015.95 1016.33 1016.69 1017.04 1017.39 1017.87 1018.20 1018.58 1018.96 1019.26 1019.64 1019.79 1020.50 1020.95 1020.90 1020.76 1020.61 1020.49 1020.55 1020.83 1020.90 1020.88 1021.08 1021.29 1021.54 1021.85 1022.03 1022.14 1022.34 1022.64 1022.86 1023.15 1023.39 1023.53 1023.73 1023.83 1024.00 1024.12 1024.13 1024.11 1024.12 1024.13 1024.13
1015.70 1015.74 1016.06 1016.46 1016.78 1017.36 1017.80 1018.06 1018.46 1018.96 1019.24 1019.48 1020.34 1021.13 1021.24 1021.05 1020.43 1020.09 1020.16 1020.30 1020.41 1020.43 1020.64 1020.92 1021.06 1021.48 1021.90 1022.10 1022.29 1022.48 1022.83 1023.05 1023.21 1023.23 1023.47 1023.62 1023.90 1023.98 1024.05 1024.07 1024.03 1023.92 1023.85
1015.47 1015.66 1015.99 1016.14 1016.37 1016.74 1017.12 1017.35 1017.67 1018.12 1018.53 1019.02 1018.80 1019.51 1020.79 1020.65 1020.42 1019.78 1019.72 1019.71 1019.93 1020.26 1020.41 1020.54 1020.99 1021.21 1021.69 1022.19 1022.33 1022.43 1022.74 1023.05 1023.04 1023.12 1023.30 1023.42 1023.60 1023.80 1023.86 1023.94 1023.98 1023.92 1023.77
1015.04 1015.26 1015.62 1015.97 1016.35 1016.43 1016.55 1016.77 1017.11 1017.34 1017.94 1018.45 1018.93 1018.51 1018.52 1019.11 1020.04 1020.23 1019.84 1019.72 1019.90 1020.25 1020.55 1020.77 1020.79 1021.09 1021.27 1021.92 1022.45 1022.98 1023.44 1023.48 1023.54 1023.63 1023.66 1023.51 1023.37 1023.41 1023.52 1023.69 1023.71 1023.68 1023.68
1014.46 1014.61 1014.90 1015.29 1015.77 1016.17 1016.33 1016.57 1017.05 1017.25 1017.49 1017.77 1018.00 1018.46 1018.96 1019.06 1019.46 1020.05 1020.20 1019.95 1019.86 1020.10 1020.42 1020.44 1020.45 1020.87 1021.35 1021.54 1022.04 1022.79 1023.61 1023.89 1023.91 1023.82 1024.12 1024.07 1023.75 1023.34 1023.39 1023.41 1023.60 1023.61 1023.62
1014.40 1014.41 1014.58 1014.77 1015.05 1015.58 1015.90 1015.98 1016.29 1016.57 1016.86 1017.01 1017.25 1017.70 1017.95 1018.46 1018.85 1019.53 1019.97 1020.20 1020.51 1021.00 1021.14 1021.29 1021.23 1021.52 1021.85 1022.01 1022.67 1022.80 1022.85 1024.18 1024.84 1024.45 1024.34 1024.33 1024.43 1023.60 1023.23 1023.45 1023.53 1023.65 1023.58
1014.36 1014.22 1014.24 1014.46 1014.66 1014.81 1015.00 1015.42 1015.93 1016.25 1016.45 1016.54 1016.79 1016.92 1017.17 1017.62 1017.80 1018.36 1019.31 1020.08 1020.55 1021.34 1021.62 1022.13 1022.49 1022.00 1021.91 1023.50 1022.65 1024.06 1023.39 1023.13 1024.90 1024.35 1024.64 1024.43 1024.28 1023.60 1023.41 1023.53 1023.61 1023.62 1023.52
1014.56 1014.43 1014.59 1014.71 1014.85 1014.97 1015.25 1015.62 1015.95 1016.04 1016.17 1016.20 1016.38 1016.71 1017.00 1017.24 1017.58 1017.83 1018.38 1019.32 1020.72 1021.50 1022.14 1022.26 1022.81 1022.12 1023.29 1022.00 1023.37 1023.80 1023.69 1024.12 1024.29 1024.17 1024.40 1024.59 1024.05 1023.37 1023.46 1023.21 1023.53 1023.58 1023.47
1015.13 1015.04 1015.08 1015.22 1015.33 1015.40 1015.63 1015.99 1016.18 1016.26 1016.30 1016.48 1016.58 1016.62 1017.11 1017.71 1018.07 1018.44 1018.78 1018.97 1019.18 1020.57 1021.43 1021.98 1022.40 1022.38 1022.51 1023.10 1022.91 1023.60 1024.16 1024.51 1024.39 1024.14 1023.83 1023.91 1023.80 1023.31 1023.28 1023.12 1023.30 1023.23 1023.19
1015.73 1015.60 1015.56 1015.76 1015.88 1016.06 1016.20 1016.37 1016.58 1016.81 1016.88 1017.26 1017.51 1017.63 1018.00 1018.37 1018.65 1018.86 1019.09 1019.37 1019.57 1020.09 1020.96 1021.58 1022.24 1022.88 1022.97 1022.82 1023.72 1023.87 1023.97 1024.12 1023.97 1023.58 1023.40 1023.33 1023.36 1023.19 1023.16 1023.04 1023.12 1023.02 1022.87
1016.25 1016.13 1016.15 1016.21 1016.34 1016.59 1016.88 1017.12 1017.32 1017.60 1017.91 1018.05 1018.22 1018.45 1018.87 1019.07 1019.28 1019.45 1019.46 1019.67 1020.22 1020.46 1020.91 1021.98 1022.35 1022.68 1022.99 1022.92 1023.15 1023.49 1023.49 1023.80 1023.59 1023.45 1023.15 1023.16 1023.13 1023.17 1022.89 1022.78 1022.73 1022.71 1022.48
1017.05 1017.07 1016.90 1017.10 1017.35 1017.49 1017.60 1017.77 1018.06 1018.23 1018.68 1018.87 1018.90 1019.10 1019.51 1019.78 1020.04 1020.17 1020.32 1020.25 1020.45 1021.00 1021.26 1021.98 1022.45 1022.86 1022.93 1023.02 1023.07 1023.19 1023.52 1023.43 1023.48 1023.39 1023.02 1022.97 1022.79 1022.83 1022.74 1022.51 1022.37 1022.21 1022.11
1018.09 1017.87 1017.85 1018.06 1018.24 1018.31 1018.38 1018.53 1018.73 1018.77 1019.14 1019.47 1019.56 1019.67 1020.17 1020.43 1020.81 1021.01 1021.17 1021.50 1021.32 1021.35 1021.42 1022.14 1022.76 1022.86 1022.99 1023.18 1023.48 1023.25 1023.16 1023.64 1023.39 1023.12 1022.88 1022.84 1022.97 1022.79 1022.43 1022.13 1021.80 1021.73 1021.75
1018.74 1018.78 1018.99 1019.01 1019.06 1019.14 1019.22 1019.37 1019.47 1019.87 1019.92 1020.16 1020.29 1020.41 1020.63 1020.92 1021.12 1021.42 1021.65 1022.09 1022.34 1022.12 1022.06 1022.38 1022.47 1023.11 1022.77 1023.05 1023.18 1023.14 1023.60 1023.56 1023.53 1023.38 1023.13 1022.84 1022.57 1022.49 1022.33 1022.02 1021.76 1021.64 1021.43
1019.46 1019.64 1019.65 1019.74 1019.84 1019.85 1020.10 1020.19 1020.27 1020.67 1020.77 1021.02 1021.17 1021.36 1021.35 1021.31 1021.47 1021.70 1022.17 1022.51 1022.68 1022.84 1022.88 1022.65 1023.25 1023.01 1023.07 1023.26 1023.35 1023.38 1023.56 1023.84 1023.62 1023.41 1023.13 1023.02 1022.66 1022.57 1022.34 1021.85 1021.52 1021.19 1020.88
1020.41 1020.36 1020.24 1020.56 1020.71 1020.63 1020.76 1020.85 1020.86 1021.29 1021.38 1021.67 1022.03 1022.15 1022.17 1022.46 1022.41 1022.38 1022.37 1022.65 1022.81 1022.80 1022.79 1022.85 1023.28 1023.37 1023.59 1023.58 1023.58 1023.71 1023.83 1024.08 1024.06 1023.29 1022.94 1022.88 1022.52 1022.09 1021.78 1021.62 1021.09 1020.48 1020.20
1020.88 1021.29 1021.50 1021.49 1021.44 1021.44 1021.35 1021.40 1021.57 1021.92 1022.14 1022.49 1022.68 1022.79 1022.71 1022.89 1023.09 1023.03 1022.86 1022.73 1022.60 1022.42 1022.37 1022.87 1023.34 1023.60 1023.58 1023.51 1023.60 1023.79 1023.93 1023.94 1023.94 1023.48 1023.12 1022.39 1021.99 1021.81 1021.36 1020.85 1020.47 1020.10 1019.83
1022.06 1022.46 1022.37 1022.23 1022.09 1021.88 1021.73 1021.76 1022.05 1022.43 1022.67 1022.92 1023.00 1023.04 1023.12 1023.20 1023.13 1022.95 1022.98 1022.83 1022.77 1022.77 1022.77 1022.80 1023.22 1023.40 1023.42 1023.35 1023.48 1023.55 1023.70 1023.81 1023.51 1023.08 1023.06 1022.81 1021.92 1021.53 1020.90 1020.33 1019.85 1019.58 1019.30
1022.92 1023.01 1022.95 1022.85 1022.64 1022.29 1022.03 1022.24 1022.50 1022.73 1023.07 1023.30 1023.26 1023.31 1023.26 1023.15 1022.82 1022.82 1023.14 1023.20 1023.12 1023.01 1022.74 1022.61 1022.72 1022.68 1022.56 1022.54 1022.66 1023.36 1023.62 1023.71 1023.53 1023.03 1022.83 1022.85 1022.17 1021.54 1020.49 1019.99 1019.68 1019.39 1019.35
1023.30 1023.30 1023.31 1023.12 1022.87 1022.44 1022.09 1022.17 1022.61 1022.92 1023.13 1023.35 1023.47 1023.41 1023.05 1023.19 1023.15 1023.13 1023.32 1023.42 1023.36 1023.34 1023.23 1023.16 1023.12 1023.04 1022.87 1022.78 1022.43 1022.77 1023.15 1023.83 1023.86 1023.15 1022.61 1022.51 1022.38 1022.14 1021.05 1019.81 1019.67 1019.39 1019.25
Thickness
5698 5697 5694 5691 5687 5685 5683 5680 5679 5677 5675 5674 5673 5672 5671 5667 5665 5663 5659 5656 5654 5651 5649 5646 5644 5640 5638 5636 5634 5631 5630 5627 5625 5623 5622 5621 5619 5616 5615 5614 5614 5614 5613
5697 5694 5691 5688 5685 5683 5681 5679 5677 5675 5673 5671 5669 5668 5666 5665 5661 5659 5657 5653 5649 5647 5644 5643 5641 5638 5635 5632 5629 5626 5624 5621 5619 5618 5617 5616 5614 5611 5610 5609 5608 5607 5606
5697 5694 5690 5687 5684 5682 5680 5677 5675 5673 5670 5666 5665 5662 5660 5658 5656 5654 5651 5648 5645 5642 5639 5638 5635 5634 5630 5628 5624 5622 5620 5617 5615 5613 5612 5611 5609 5607 5605 5604 5602 5601 5601
5694 5691 5688 5686 5685 5682 5679 5676 5673 5669 5666 5663 5660 5657 5655 5653 5650 5649 5647 5644 5641 5639 5635 5633 5631 5629 5625 5623 5621 5617 5615 5612 5609 5607 5605 5603 5602 5602 5599 5599 5597 5596 5596
5691 5688 5685 5683 5681 5678 5676 5672 5668 5665 5659 5656 5653 5651 5649 5648 5645 5643 5640 5639 5637 5634 5632 5628 5625 5623 5620 5617 5615 5612 5608 5606 5603 5600 5598 5595 5594 5593 5592 5591 5590 5590 5589
5689 5684 5682 5680 5677 5672 5669 5665 5662 5659 5656 5651 5647 5643 5640 5640 5638 5637 5636 5633 5630 5628 5625 5623 5619 5617 5615 5612 5608 5605 5602 5598 5595 5593 5592 5589 5586 5584 5583 5582 5582 5581 5581
5686 5682 5679 5676 5672 5669 5666 5661 5656 5652 5647 5643 5635 5629 5628 5630 5630 5631 5629 5626 5625 5623 5620 5617 5613 5609 5606 5603 5601 5597 5595 5592 5589 5587 5585 5582 5579 5576 5574 5573 5572 5571 5570
5683 5681 5678 5674 5671 5665 5660 5657 5652 5646 5641 5636 5625 5617 5616 5618 5623 5624 5622 5621 5619 5618 5615 5610 5608 5602 5598 5595 5592 5589 5586 5584 5582 5581 5578 5575 5570 5568 5565 5563 5562 5563 5563
5676 5674 5670 5670 5667 5662 5658 5655 5650 5644 5638 5631 5631 5620 5605 5610 5609 5615 5616 5614 5612 5607 5605 5602 5598 5595 5589 5585 5582 5580 5576 5572 5571 5569 5567 5564 5561 5557 5555 5554 5553 5552 5552
5672 5669 5664 5660 5657 5656 5653 5650 5646 5642 5634 5627 5620 5624 5620 5612 5603 5602 5604 5603 5599 5595 5592 5588 5586 5585 5583 5577 5571 5565 5558 5556 5554 5552 5550 5550 5550 5548 5546 5544 5544 5543 5542
5665 5663 5660 5656 5653 5648 5645 5641 5635 5631 5628 5623 5618 5610 5604 5600 5595 5588 5588 5588 5587 5584 5581 5578 5577 5574 5571 5569 5563 5554 5545 5540 5538 5536 5531 5529 5532 5536 5535 5534 5531 5530 5530
5660 5658 5654 5651 5647 5642 5637 5635 5631 5627 5622 5617 5613 5605 5599 5592 5589 5578 5572 5569 5568 5561 5561 5559 5558 5555 5554 5552 5545 5538 5535 5525 5516 5517 5514 5515 5511 5520 5523 5520 5519 5518 5517
5655 5654 5651 5647 5643 5640 5636 5631 5625 5619 5614 5610 5603 5598 5592 5585 5579 5573 5564 5554 5550 5542 5540 5533 5529 5538 5540 5527 5530 5514 5520 5521 5504 5506 5498 5496 5497 5505 5510 5508 5505 5503 5502
5644 5643 5640 5637 5633 5629 5624 5619 5614 5610 5605 5600 5594 5587 5580 5573 5566 5560 5554 5543 5528 5524 5520 5520 5516 5523 5513 5516 5508 5500 5502 5496 5494 5491 5485 5479 5484 5493 5494 5494 5489 5487 5486
5630 5628 5627 5624 5621 5618 5613 5607 5602 5598 5594 5587 5581 5576 5566 5555 5545 5536 5530 5528 5531 5517 5513 5507 5506 5504 5506 5497 5497 5492 5482 5480 5478 5476 5478 5475 5473 5477 5478 5478 5474 5473 5472
5616 5617 5616 5612 5609 5604 5599 5594 5589 5582 5577 5569 5561 5554 5544 5533 5523 5515 5510 5508 5509 5507 5505 5496 5492 5489 5485 5486 5478 5475 5472 5470 5467 5468 5467 5465 5463 5464 5462 5461 5459 5458 5459
5604 5605 5604 5602 5598 5592 5585 5580 5573 5566 5558 5551 5544 5536 5525 5514 5502 5493 5491 5490 5487 5488 5488 5477 5477 5475 5473 5473 5469 5464 5462 5459 5458 5456 5456 5453 5452 5448 5449 5446 5445 5444 5444
5590 5589 5590 5586 5580 5574 5570 5565 5558 5551 5542 5535 5530 5521 5510 5498 5483 5474 5470 5473 5474 5471 5473 5468 5464 5462 5462 5460 5458 5457 5450 5447 5445 5444 5443 5441 5438 5433 5430 5430 5430 5430 5429
5573 5575 5574 5569 5564 5560 5556 5550 5544 5539 5530 5522 5516 5509 5496 5485 5469 5459 5455 5452 5455 5458 5459 5457 5452 5452 5450 5447 5443 5443 5440 5434 5433 5432 5430 5426 5420 5418 5418 5418 5418 5416 5413
5561 5559 5555 5553 5549 5545 5541 5536 5530 5522 5516 5509 5503 5495 5486 5475 5464 5452 5447 5442 5441 5443 5443 5443 5444 5440 5441 5437 5434 5432 5425 5423 5419 5416 5414 5413 5410 5404 5402 5401 5399 5397 5395
5547 5544 5543 5539 5535 5531 5526 5521 5517 5509 5503 5495 5488 5481 5474 5467 5458 5450 5442 5436 5433 5432 5432 5434 5432 5432 5429 5426 5424 5420 5415 5410 5409 5407 5404 5402 5395 5388 5385 5382 5381 5379 5377
5531 5531 5530 5525 5520 5518 5513 5509 5504 5497 5491 5483 5474 5467 5462 5455 5448 5443 5438 5433 5430 5427 5426 5426 5421 5421 5418 5414 5413 5409 5404 5397 5395 5399 5390 5387 5380 5376 5372 5367 5366 5365 5363
5520 5515 5512 5510 5507 5503 5501 5497 5492 5484 5477 5469 5463 5457 5453 5446 5439 5435 5431 5429 5428 5426 5424 5419 5414 5410 5409 5408 5403 5395 5392 5385 5382 5384 5377 5372 5371 5363 5360 5358 5356 5354 5353
5502 5499 5498 5496 5494 5492 5489 5486 5480 5473 5467 5461 5455 5449 5444 5438 5434 5431 5428 5426 5423 5420 5418 5415 5409 5405 5402 5399 5394 5388 5382 5377 5374 5373 5369 5355 5359 5355 5351 5350 5349 5347 5346
5489 5488 5486 5483 5482 5481 5480 5475 5469 5463 5457 5451 5448 5442 5437 5433 5431 5427 5421 5417 5415 5413 5411 5407 5403 5399 5396 5392 5387 5379 5370 5362 5357 5358 5356 5348 5347 5347 5344 5342 5340 5337 5334
5480 5478 5475 5475 5475 5473 5471 5468 5462 5456 5451 5445 5440 5437 5433 5428 5424 5420 5414 5409 5405 5402 5399 5396 5393 5389 5386 5382 5377 5371 5363 5347 5342 5339 5344 5338 5333 5334 5336 5333 5329 5327 5325